Location: Bun Machan
(52.1403°N, 7.3744°W)
Time: 18:14:31
(UTC+00:00)

Cosmos 1703 Rocket - Pass Details

Date: 14 July 2020
Orbit: 605 x 634 km, 82.5° (Epoch: 11 August)

Event Time Altitude Azimuth Distance (km) Brightness Sun altitude
Rises 02:05:49 0° 345° (NNW) 2,939 8.0 -13.6°
Reaches altitude 10° 02:08:08 10° 340° (NNW) 2,022 6.9 -13.5°
Maximum altitude 02:12:27 50° 266° (W) 806 3.9 -13.3°
Enters shadow 02:15:15 20° 199° (SSW) 1,439 4.8 -13.1°
